Location: Darlington Observatory
(36.4817°N, 105.8156°W)
Time: 12:47:32
(UTC-06:00)

Daily predictions for brighter satellites

Satellite Brightness Start Highest point End
(mag) Time Altitude Azimuth Time Altitude Azimuth Time Altitude Azimuth
YAOGAN 11 4.2 20:51:45 10° SSE 20:56:00 63° ENE 21:00:22 10° N
Cosmos 1726 4.3 20:55:17 10° NE 20:56:44 12° ENE 20:58:10 10° E
Cosmos 2219 Rocket 4.0 20:54:42 10° NNE 20:58:18 17° NE 21:01:53 10° E
CZ-2D R/B 4.2 20:57:22 10° S 21:01:08 50° W 21:04:53 10° NNW
COSMOS 2428 3.5 20:57:54 10° N 21:03:08 37° ENE 21:08:21 10° SE
Cosmos 1500 Rocket 4.2 20:59:42 10° SSW 21:04:01 61° W 21:08:24 10° N
Cosmos 1437 Rocket 2.9 21:01:22 10° NNW 21:05:12 78° W 21:09:05 10° S
DELTA 2 R/B (1) 3.8 20:59:45 10° WNW 21:05:15 63° SSW 21:10:38 10° SE
Cosmos 2058 3.7 21:02:06 10° SSE 21:05:43 32° E 21:09:23 10° NNE
Cosmos 2151 3.0 21:02:44 10° S 21:06:51 59° E 21:10:59 10° NNE
Cosmos 1680 Rocket 3.6 21:03:32 10° NNW 21:08:47 71° ENE 21:14:02 10° SSE
Cosmos 405 3.0 21:08:01 10° N 21:11:39 88° E 21:15:15 10° S
Cosmos 923 Rocket 4.2 21:09:29 10° NNW 21:14:41 76° WSW 21:19:52 10° S
Cosmos 1437 2.8 21:12:44 10° S 21:16:00 87° W 21:19:18 10° N
SWAS 4.5 21:12:41 10° NNW 21:17:02 80° ENE 21:21:11 11° SSE
Cosmos 1898 Rocket 3.8 21:12:40 10° S 21:17:32 44° ESE 21:22:28 10° NNE
Delta 2 Rocket 2.9 21:15:04 10° W 21:18:56 75° S 21:22:04 12° ESE
Tiangong 1 2.5 21:16:54 10° W 21:19:50 38° NNW 21:22:46 10° NE
ALOS 3.8 21:18:03 10° SSW 21:22:19 36° W 21:26:37 10° NNW
Cosmos 1939 Rocket 2.9 21:18:36 10° SSE 21:22:28 61° ENE 21:26:18 10° N
NOSS 3-1 (A) 3.3 21:17:31 10° SSW 21:23:16 73° ESE 21:29:37 10° NE
Cosmos 2237 4.4 21:19:03 10° NNW 21:24:44 60° ENE 21:29:34 14° SE
Aureole 3 4.3 21:20:16 10° S 21:26:48 80° E 21:31:57 10° N
Nadezhda 2 Rocket 4.4 21:21:39 10° S 21:27:44 74° E 21:33:49 10° N
Cosmos 2219 3.6 21:23:43 10° SSW 21:29:26 69° WNW 21:35:11 10° NNE
CZ-4 SHROUD 4.2 21:28:39 18° SE 21:30:20 31° ENE 21:33:09 10° N
OAO 2 Rocket 3.4 21:27:05 10° WSW 21:32:21 69° S 21:37:39 10° E
Cosmos 2150 Rocket 4.1 21:28:28 10° S 21:33:50 67° ESE 21:39:16 10° NNE
Cosmos 2237 Rocket 3.7 21:30:15 10° N 21:34:40 23° ENE 21:38:17 13° ESE
Nimbus 7 Rocket 4.3 21:28:57 10° NNE 21:34:49 79° ESE 21:40:42 10° S
Sich 1 3.5 21:31:28 12° SSE 21:35:14 43° E 21:39:24 10° NNE
BREEZE M DEB (TANK) 3.9 21:35:14 10° WSW 21:36:51 16° SSW 21:38:39 12° S
Cosmos 1626 4.2 21:36:48 12° E 21:36:56 12° E 21:38:29 10° ENE
deb Chang Zheng 4 3.9 21:33:12 10° N 21:37:31 68° WNW 21:41:50 10° SSW
Cosmos 1328 4.2 21:33:59 10° SSW 21:37:53 64° W 21:41:50 10° N
Cosmos 2082 4.4 21:34:00 10° SSE 21:39:02 33° ESE 21:44:06 10° NE
Cosmos 1271 Rocket 4.0 21:35:55 10° NNE 21:39:12 26° ENE 21:40:46 20° ESE
Cosmos 1151 Rocket 3.9 21:35:17 10° NNW 21:39:27 48° W 21:43:38 10° SSW
Cosmos 2333 4.4 21:34:35 10° NNW 21:40:16 60° ENE 21:44:22 19° SE
ERBS 2.2 21:37:15 10° SW 21:40:45 81° SE 21:44:15 10° NE
YAOGAN 6 3.6 21:39:28 21° ESE 21:41:07 31° ENE 21:44:20 10° N
Cosmos 2322 4.5 21:36:17 10° NNW 21:41:47 49° WSW 21:47:13 10° S
Cosmos 1633 Rocket 3.3 21:39:37 14° SSE 21:43:08 50° E 21:47:21 10° NNE
Cosmos 2360 Rocket 3.1 21:38:18 10° NW 21:43:40 45° WSW 21:49:02 10° S
ATLAS 2AS CENTAUR R/B 3.2 21:38:34 10° S 21:45:21 44° ESE 21:52:44 10° NE
ERS-1 Rocket 3.7 21:40:37 10° S 21:45:29 51° W 21:50:24 10° NNW
Cosmos 1703 3.8 21:50:08 26° SE 21:51:49 40° E 21:55:29 10° NNE
Cosmos 2242 Rocket 4.1 21:48:10 10° N 21:52:28 44° E 21:54:37 26° SE
Envisat 3.1 21:48:32 13° S 21:53:04 74° WSW 21:58:09 10° NNW
SL-14 R/B 3.2 21:49:47 12° S 21:53:21 86° E 21:57:24 10° N
ATLAS 3B R/B 4.2 21:50:18 10° N 21:55:48 24° NE 22:00:41 11° E
CZ-4 R/B 4.4 21:51:23 10° NNE 21:55:56 38° E 21:58:03 25° SSE
PSLV R/B 3.0 21:55:40 32° SSE 21:56:56 89° ESE 21:59:59 10° NNW
USA 245 3.5 21:58:26 25° ENE 21:58:26 25° ENE 22:00:03 10° NNE
Sakura Rocket 4.1 21:56:35 10° SW 21:59:47 22° S 21:59:47 22° S
Cosmos 1805 Rocket 4.3 21:56:34 10° SSW 22:00:55 55° W 22:05:18 10° N
Cosmos 220 Rocket 4.0 21:59:56 10° SSW 22:04:19 88° WNW 22:08:46 10° NNE
Meteor 1-27 4.3 22:01:26 10° NNW 22:07:05 78° W 22:11:09 19° S
Cosmos 1300 3.2 22:04:48 10° NNW 22:08:36 58° W 22:10:50 22° SSW
USA 32 4.1 22:05:16 10° N 22:10:29 63° E 22:13:03 30° SSE
Cosmos 2227 Rocket 2.1 22:05:07 10° S 22:10:42 68° ESE 22:16:20 10° NNE
Cosmos 1937 Rocket 3.6 22:06:11 10° SSW 22:11:25 79° WNW 22:16:38 10° NNE
FALCON 9 R/B 4.4 21:36:10 10° W 22:13:11 83° S 22:20:47 13° E
MetOp-A 4.2 22:11:44 22° S 22:15:13 75° WSW 22:20:36 10° NNW
Cosmos 990 Rocket 3.8 22:12:38 13° SSW 22:17:11 82° ESE 22:22:21 10° NNE
H-2A R/B 3.8 22:13:39 10° SSW 22:17:35 29° W 22:21:31 10° NW
SPOT 5 3.6 22:19:17 19° SSW 22:22:19 46° W 22:27:00 10° NNW
Cosmos 292 Rocket 3.7 22:17:49 10° NNW 22:22:36 79° WSW 22:24:32 36° S
OTV 4 0.6 22:23:28 10° W 22:26:19 70° NNW 22:26:19 70° NNW
ARGOS 3.1 22:26:16 34° SSE 22:28:41 83° ENE 22:34:05 10° NNW
Cosmos 1346 3.2 22:29:56 67° NNE 22:29:56 67° NNE 22:32:37 10° N
CZ-4B R/B 3.8 22:24:52 10° N 22:30:04 67° WNW 22:34:27 14° SSW
SL-16 R/B 3.5 22:25:44 10° N 22:30:35 28° ENE 22:32:32 23° E
Cosmos 1455 2.5 22:27:01 10° N 22:30:44 49° E 22:30:51 49° E
Hubble Space Telescope 2.5 22:28:40 10° SW 22:30:23 19° SW 22:30:23 19° SW
Cosmos 1726 3.5 22:28:46 10° NNW 22:32:15 36° W 22:33:54 24° SW
Cosmos 2333 Rocket 2.2 22:29:50 10° NNW 22:35:37 82° ENE 22:37:44 41° SSE
Cosmos 2297 Rocket 2.1 22:33:34 24° SSW 22:37:08 79° ESE 22:42:48 10° NNE
Cosmos 1470 Rocket 3.5 22:36:19 40° SSW 22:37:50 78° W 22:42:10 10° N
Landsat 7 3.9 22:36:52 47° SE 22:37:57 61° ENE 22:42:39 10° N
Cosmos 1933 Rocket 3.6 22:37:06 39° SSW 22:38:43 80° W 22:43:12 10° N
Meteor 1-4 Rocket 3.6 22:36:57 10° NNW 22:40:26 39° W 22:41:20 33° SW
Cosmos 2219 Rocket 2.4 22:37:11 10° NNW 22:42:43 64° WSW 22:44:50 37° S
Cosmos 44 Rocket 3.9 22:43:23 40° E 22:43:23 40° E 22:47:50 10° NE
SL-08 RB Rocket 3.6 22:43:11 52° S 22:44:14 79° WSW 22:48:45 10° NNW
Lacrosse 4 Rocket 2.7 22:40:44 10° N 22:44:41 30° ENE 22:45:16 29° ENE
Meteor 2-10 4.4 22:40:22 10° NNW 22:46:05 69° W 22:48:33 35° SSW
COSMOS 2428 4.3 22:42:28 10° NW 22:47:10 27° WSW 22:50:27 16° SSW
NOSS 2-3 (C) 4.1 22:47:39 49° ESE 22:47:39 49° ESE 22:52:39 10° NE
Cosmos 1933 4.5 22:46:22 10° NNE 22:49:34 31° ENE 22:49:34 31° ENE
NOSS 0 Rocket 4.1 22:45:14 10° NNW 22:51:19 66° WSW 22:53:35 39° S
Cosmos 1269 Rocket 4.4 22:46:55 10° N 22:52:03 48° ENE 22:52:58 43° E
Terra 1.8 22:53:14 56° ESE 22:53:49 61° ENE 22:58:31 10° N
Nadezhda 1 Rocket 4.0 22:48:22 10° N 22:54:29 78° W 22:56:55 39° S
Tiangong 1 3.2 22:54:17 10° NW 22:56:53 24° N 22:57:27 23° NNE
H-2A R/B 2.1 22:56:03 54° SSE 22:57:16 77° ENE 23:02:44 10° N
COSMOS 2455 3.0 22:57:34 10° NNW 23:03:33 60° ENE 23:04:58 48° ESE
Cosmos 1125 Rocket 3.5 23:03:57 50° SSW 23:05:25 86° WNW 23:10:46 10° NNE
Cosmos 1980 4.0 23:01:48 10° NNW 23:07:18 56° WSW 23:08:40 44° SSW
Cosmos 1048 Rocket 4.3 23:02:49 10° N 23:08:04 54° ENE 23:08:41 51° E
NOSS 2-3 (D) 3.7 23:08:31 73° SE 23:08:42 75° ESE 23:14:06 10° NE
Spot 4 3.8 23:08:33 66° E 23:08:50 68° ENE 23:13:40 10° N
Cosmos 2221 Rocket 4.1 23:04:58 10° N 23:09:02 48° ENE 23:09:02 48° ENE
Cosmos 1626 3.5 23:11:29 31° W 23:11:59 33° W 23:15:24 10° NNW
Cosmos 1709 Rocket 3.8 23:12:21 52° S 23:14:00 89° E 23:20:08 10° N
Cosmos 1869 3.9 23:11:03 10° NNW 23:14:51 52° W 23:14:51 52° W
Cosmos 372 Rocket 3.9 23:16:09 67° ESE 23:16:09 67° ESE 23:21:19 10° NNE
OAO 2 Rocket 3.3 23:11:50 10° W 23:16:59 72° SSW 23:16:59 72° SSW
Cosmos 1900 4.1 23:12:37 10° NNW 23:17:35 84° ENE 23:17:41 84° E
Cosmos 2237 Rocket 2.7 23:13:31 10° NNW 23:18:58 48° WSW 23:20:07 42° SW
CARTOSAT-1 3.8 23:19:15 63° W 23:19:15 63° W 23:23:25 10° NNW
TSX-5 4.4 23:25:47 75° S 23:26:14 84° ESE 23:32:44 10° NNE
IGS 5A 4.0 23:27:25 55° WNW 23:27:25 55° WNW 23:31:05 10° NNW
Meteor 1-26 Rocket 4.3 23:22:54 10° N 23:28:30 59° E 23:28:49 59° E
Cosmos 44 4.3 23:33:29 38° ENE 23:33:29 38° ENE 23:37:13 10° NE
ATLAS 2AS CENTAUR R/B 4.1 23:29:20 10° WSW 23:36:23 42° NW 23:43:57 10° NNE
In-Cosmos 22 Rocket 4.2 23:37:33 67° E 23:37:33 67° E 23:43:16 10° NNE
ATLAS 3B R/B 2.5 23:40:18 10° NW 23:47:11 71° WSW 23:47:56 65° SSW
Cosmos 1869 Rocket 4.3 23:48:02 51° WNW 23:48:02 51° WNW 23:51:58 10° N
COS B Rocket 4.3 23:43:37 10° N 23:46:40 49° NNW 23:46:40 49° NNW
Meteor 2-3 Rocket 3.6 23:51:09 80° E 23:51:09 80° E 23:56:48 10° N
Cosmos 2181 Rocket 4.2 23:45:01 10° NNW 23:51:20 63° W 23:52:25 54° SW
Cosmos 2263 Rocket 4.1 23:54:57 17° ENE 23:54:57 17° ENE 23:57:01 10° NE
